Regional Weather Roundup
Issued by NWS

Home | Current Version | Previous Version | Text Only | Print | Product List | Glossary On
Versions: 1 2 3 4 5 6 7 8 9 10 11 12 13 14 15 16 17 18 19 20 21 22 23 24 25 26 27 28 29 30 31 32 33 34 35 36 37 38 39 40 41 42 43 44 45 46 47 48 49 50
000
ASUS44 KOUN 221110
RWROK

WEATHER ROUNDUP FOR OKLAHOMA
NATIONAL WEATHER SERVICE NORMAN OK
500 AM CST WED FEB 22 2017

NOTE: "FAIR" INDICATES FEW OR NO CLOUDS BELOW 12,000 FEET WITH NO
      SIGNIFICANT WEATHER AND/OR OBSTRUCTIONS TO VISIBILITY.

OKZ001>007-009>012-014-015-017-221200-
NORTHWEST OKLAHOMA AND THE PANHANDLE

CITY           SKY/WX    TMP DP  RH WIND       PRES   REMARKS
GAGE           CLEAR     43  29  57 W6        29.86R
GUYMON         CLOUDY    44  17  33 SW10      29.85F
ENID/WOODRING  CLEAR     39  37  93 SE5       29.85S
$$

OKZ016-021>023-033>039-044-045-221200-
SOUTHWEST OKLAHOMA

CITY           SKY/WX    TMP DP  RH WIND       PRES   REMARKS
LAWTON/REGL    CLEAR     40  39  97 CALM      29.90S
LAWTON/FT SILL CLEAR     45  39  79 S5        29.88F
FREDERICK      CLEAR     46  39  76 SE5       29.85F
CLINTON        CLEAR     50  37  61 S12       29.87F
HOBART         CLEAR     44  38  79 S8        29.88F
ALTUS AFB      CLEAR     41  37  84 E6        29.87F
$$

OKZ018>020-024>031-221200-
CENTRAL OKLAHOMA

CITY           SKY/WX    TMP DP  RH WIND       PRES   REMARKS
OKLAHOMA CITY  CLEAR     42  37  82 S6        29.88S
OKC/WILEY POST CLEAR     41  36  82 SW9       29.87F
OKC/TINKER AFB CLEAR     44  37  78 S7        29.87F
STILLWATER     CLEAR     38  36  92 CALM      29.87R
GUTHRIE        CLEAR     47  37  68 S8        29.87S
$$

OKZ008-013-054>072-221200-
NORTHEAST OKLAHOMA

CITY           SKY/WX    TMP DP  RH WIND       PRES   REMARKS
TULSA          CLEAR     47  43  86 CALM      29.86R
TULSA/JONES    CLEAR     40  38  93 CALM      29.88S
PONCA CITY     CLEAR     44  36  73 S3        29.86S
BARTLESVILLE   CLEAR     35  33  92 CALM      29.87F
MUSKOGEE       FOG       45  45 100 S6        29.89S VSB 1/2
$$

OKZ032-040>043-046>053-073>077-221200-
SOUTH CENTRAL/SOUTHEAST OKLAHOMA

CITY           SKY/WX    TMP DP  RH WIND       PRES   REMARKS
ARDMORE/DWNTWN CLEAR     41  37  87 CALM      29.90S
MCALESTER      CLEAR     42  39  89 CALM      29.90R
$$





USA.gov is the U.S. government's official web portal to all federal, state and local government web resources and services.